Regional Weather Roundup
Issued by NWS Green Bay, WI

Home | Current Version | Previous Version | Graphics & Text | Print | Product List | Glossary Off
Versions: 1 2 3 4 5 6 7 8 9 10 11 12 13 14 15 16 17 18 19 20 21 22 23 24 25 26 27 28 29 30 31 32 33 34 35 36 37 38 39 40 41 42 43 44 45 46 47 48 49 50

000
ASUS43 KGRB 180011
RWRGRB

NORTH-CENTRAL AND NORTHEAST WISCONSIN REGIONAL WEATHER ROUNDUP
NATIONAL WEATHER SERVICE GREEN BAY WI
600 PM CST SUN DEC 17 2017

WIZ005-009-010>012-018-019-180100-
NORTH CENTRAL WISCONSIN

CITY           SKY/WX    TMP DP  RH WIND       PRES   REMARKS
IRONWOOD       CLOUDY    24  22  91 CALM      29.93F
MANITOWISH WTR MOCLDY    23  23 100 CALM      29.91S
ARBOR VITAE    CLOUDY    27  25  95 S5        29.90F
EAGLE RIVER    CLOUDY    25  25 100 CALM      29.90F
LAND O LAKES   MOCLDY    25  24  96 S3        29.92F
RHINELANDER    CLOUDY    26  25  96 S3        29.92F
PHILLIPS       CLOUDY    26  25  99 S3        29.91F
ANTIGO         CLOUDY    25  25  99 CALM      29.94S FOG
TOMAHAWK       CLOUDY    26  24  93 CALM      29.93F FOG
MERRILL        CLOUDY    27  26  97 CALM      29.95S FOG
$$

WIZ013-073-180100-
NORTHEAST WISCONSIN

CITY           SKY/WX    TMP DP  RH WIND       PRES   REMARKS
IRON MOUNTAIN  CLOUDY    26  23  88 CALM      29.95F
MARINETTE      CLOUDY    31  27  85 S3        30.00S
OCONTO         CLOUDY    30  28  92 CALM      30.00R
$$

WIZ017-030-035>037-045-180100-
CENTRAL WISCONSIN

CITY           SKY/WX    TMP DP  RH WIND       PRES   REMARKS
MEDFORD        CLOUDY    25  25  97 SE5       29.93R FOG
WAUSAU         CLOUDY    27  25  92 SE5       29.94S
MOSINEE        CLOUDY    27  27 100 CALM      29.96S FOG
MARSHFIELD     CLOUDY    27  26  96 S8        29.95R FOG
WISC RAPIDS    CLOUDY    28  26  92 CALM      30.00R FOG
STEVENS POINT  FOG       26  26 100 CALM      29.98R VSB 3/4
WAUPACA        CLOUDY    30  26  86 CALM      30.01R
SHAWANO        CLOUDY    29  27  92 CALM      29.98F FOG
CLINTONVILLE   CLOUDY    28  27  93 NE3       29.99S FOG
WAUTOMA        CLOUDY    29  27  92 N3        30.00R
$$

WIZ038-039-048-051-180100-
FOX VALLEY

CITY           SKY/WX    TMP DP  RH WIND       PRES   REMARKS
NWS GREEN BAY  CLOUDY    31  27  85 SE3       30.00R
APPLETON       CLOUDY    28  27  93 VRB5      29.97R
OSHKOSH        CLOUDY    30  27  88 S3        29.99R FOG
FOND DU LAC    CLOUDY    31  27  85 S3        29.99S
$$

WIZ022-050-052-180100-
EAST CENTRAL WISCONSIN

CITY           SKY/WX    TMP DP  RH WIND       PRES   REMARKS
EPHRAIM        CLOUDY    30  27  90 CALM      29.98S
WASHINGTON ISL CLOUDY    31  27  86 CALM      29.98F
STURGEON BAY   CLOUDY    30  28  92 N3        30.00S
MANITOWOC      CLOUDY    31  29  92 NW3       30.00R FOG
SHEBOYGAN      CLOUDY    30  30 100 W3        29.99S FOG
$$

LMZ563-521-522-541>543-180100-
LAKESHORE

STATION/POSITION TIME  TEMP    WIND        PRES    VSBY  WAVE
                       AIR SEA DIR/SP/G                  HT/PER
                 (UTC) (F)     (DEG/KT/KT) (MB)    (MI)  (FT/S)
SHEBOYGAN LKSHOR 0000   33     200/  2/  3 1016.2F
KEWAUNEE LKSHORE 2348          270/  2/  3 1014.9F
NORTHPORT PIER   2340   32      CALM  /  4 1015.6F
SISTER BAY LKSHO 2305   32     150/  3/  6   N/A
MENOMINEE LKSHOR 2348          140/  5/  6 1015.3F
$$



USA.gov is the U.S. government's official web portal to all federal, state and local government web resources and services.